2020-079M

Last updated on Mon Dec 07 2020 00:02:03 GMT+0000 (Coordinated Universal Time)

1 46838U 20079M 20341.50805516 .00004080 00000-0 13317-3 0 9997 2 46838 97.2643 53.1545 0007862 164.8711 319.7279 15.32309015 4647
UTC large
Height (km)
Speed (km/s)
/
Latitude / Longitude
Inclination (degrees)
Orbital Period (minutes)
Azimuth
Elevation
Range (km)
Doppler Factor

Next 0 passes for location: London (51.5072 / 0.1276)

Sorry there are no passes over London.